Date,TemperatureHighF,TemperatureAvgF,TemperatureLowF,DewpointHighF,DewpointAvgF,DewpointLowF,HumidityHigh,HumidityAvg,HumidityLow,PressureMaxIn,PressureMinIn,WindSpeedMaxMPH,WindSpeedAvgMPH,GustSpeedMaxMPH,PrecipitationSumIn
2013-4-1,61,48,38,46,38,9,100,71,28,29.85,29.56,13,3,21,0.00
2013-4-2,43,38,33,14,10,6,44,32,22,30.03,29.85,14,5,22,0.00
2013-4-3,46,38,33,12,9,6,40,30,20,30.23,30.03,13,6,21,0.00
2013-4-4,48,39,29,32,19,12,71,46,28,30.34,30.07,9,3,18,0.00
2013-4-5,61,48,41,34,24,12,77,43,17,30.07,29.65,9,3,20,0.00
2013-4-6,50,41,35,28,15,3,63,37,16,30.28,29.92,10,3,20,0.00
2013-4-7,51,45,38,43,35,27,85,68,54,30.27,29.98,15,6,26,0.00
2013-4-8,69,54,41,47,42,37,97,68,32,30.03,29.93,7,2,13,0.00
2013-4-9,81,65,49,51,43,29,90,53,15,29.98,29.85,13,3,21,0.00
2013-4-10,73,59,53,54,48,43,96,67,46,29.90,29.75,9,2,18,0.00
2013-4-11,57,55,52,56,52,46,100,92,69,29.91,29.71,6,1,12,0.00
2013-4-12,44,42,40,42,39,34,97,91,67,29.95,29.66,10,5,22,0.00
2013-4-13,56,46,39,41,36,31,97,72,39,29.93,29.69,8,2,13,0.00
2013-4-14,55,49,45,44,39,25,94,74,31,30.01,29.92,12,2,20,0.00
2013-4-15,54,48,39,38,30,25,74,52,38,30.33,30.20,7,2,13,0.00
2013-4-16,59,53,44,52,45,36,84,76,69,30.33,30.10,13,7,22,0.00
2013-4-17,68,59,52,48,41,29,76,54,25,30.24,30.10,13,6,13,0.00
2013-4-18,58,52,46,45,42,36,87,68,45,30.31,30.18,12,3,24,0.00
2013-4-19,65,58,53,60,56,45,100,94,73,30.18,29.64,14,7,33,0.00
2013-4-20,60,54,48,60,34,22,100,53,25,30.20,29.63,12,5,20,0.00
2013-4-21,52,44,37,30,21,16,61,41,24,30.58,30.22,9,2,18,0.00
2013-4-22,54,46,36,34,30,23,83,56,32,30.61,30.44,9,3,20,0.00
2013-4-23,50,44,40,40,36,31,85,73,62,30.45,30.05,9,4,18,0.00
2013-4-24,61,50,41,50,43,37,99,78,51,30.06,29.81,10,3,18,0.00
2013-4-25,65,54,47,51,32,18,93,48,17,30.22,29.83,12,4,20,0.00
2013-4-26,65,53,38,40,33,26,94,52,24,30.35,30.21,6,1,12,0.00
2013-4-27,67,54,42,38,29,17,63,41,15,30.37,30.24,9,1,14,0.00
2013-4-28,65,53,42,45,37,25,93,60,23,30.27,30.17,8,2,18,0.00
2013-4-29,56,54,53,47,45,41,79,71,59,30.20,30.15,6,2,13,0.00
2013-4-30,53,52,51,45,44,41,77,73,67,30.22,30.16,2,1,7,0.00